Vorticity
9 8 8 7 7 6 6 6 6 6 6 6 5 5 4 5 6 6 6 5 5 4 4 5 3 2 1 1 2 4 5 6 8 10 11 11 9 8 7 7 7 7 8 9 9 9 9 9 9 9 10 10 10 10 10 10 10 9 9 9 8 8 8 8 8 8 8 8 8
9 8 8 7 7 6 6 6 6 7 7 7 6 5 4 4 5 6 6 6 5 5 5 5 3 2 2 3 3 3 4 6 9 11 12 11 10 8 8 7 8 8 8 8 8 8 8 8 8 8 8 9 9 9 9 9 9 8 8 8 8 8 8 8 8 8 8 8 9
9 9 8 7 7 7 6 6 7 7 7 7 7 6 6 5 5 5 6 6 5 5 5 5 4 5 6 8 6 5 4 5 6 8 9 9 9 9 9 8 8 8 8 8 8 8 7 7 7 7 8 8 8 8 8 8 8 8 8 8 8 8 8 9 9 9 9 10 10
8 8 8 8 7 7 7 6 7 7 7 7 7 7 7 6 6 6 6 5 5 5 5 5 4 5 6 10 10 9 6 4 4 6 7 8 10 10 10 9 8 8 8 8 8 8 8 8 8 8 8 8 8 8 8 8 8 8 8 8 8 8 8 8 9 9 9 10 10
9 8 8 8 8 8 7 7 7 7 8 8 7 8 8 7 6 6 6 6 6 6 5 5 4 3 4 8 13 13 10 7 6 5 6 8 9 10 10 8 7 6 6 6 7 8 8 8 8 8 8 8 8 8 8 8 7 8 8 8 8 8 8 8 9 9 9 9 9
10 9 9 9 8 8 8 8 8 8 8 8 8 8 8 8 7 7 6 6 6 6 6 5 4 2 1 2 9 12 13 10 8 7 6 7 8 8 8 8 6 6 5 5 6 6 7 7 7 8 8 8 8 8 8 7 7 7 8 8 8 8 8 9 8 8 8 8 7
10 9 9 9 9 9 8 8 8 8 8 8 8 8 8 8 7 7 7 6 6 7 7 6 6 4 2 0 4 8 11 12 9 8 7 7 6 6 7 7 7 7 6 6 6 6 6 6 6 6 7 7 7 7 7 7 7 7 7 8 8 8 7 7 7 6 6 6 6
10 10 9 9 8 8 8 8 8 8 8 8 8 8 8 8 7 7 7 6 7 7 7 7 7 6 4 2 2 4 7 9 8 8 7 7 7 6 6 7 8 8 8 7 6 6 5 4 5 5 6 6 6 6 6 6 6 6 6 6 6 6 5 5 4 4 4 4 4
10 10 10 10 9 8 8 7 7 8 8 8 8 8 8 7 7 7 6 5 5 5 5 6 6 6 6 4 3 3 4 5 6 6 6 6 6 6 6 7 8 9 9 8 7 6 5 5 5 5 5 5 5 5 5 5 5 4 4 4 3 3 2 2 2 2 2 2 2
10 10 9 9 10 10 9 8 8 8 8 8 8 8 7 7 7 7 7 6 5 4 4 5 5 6 6 5 3 2 2 3 4 4 4 5 6 6 6 6 7 8 8 9 8 7 7 6 6 6 6 5 5 5 4 4 3 3 3 2 2 2 2 2 2 2 2 2 2
10 10 9 8 10 11 11 10 10 9 8 8 8 8 7 7 7 7 7 7 6 6 5 5 5 5 5 4 4 3 2 3 3 4 4 4 5 6 7 7 6 7 7 8 8 8 8 8 8 7 7 6 6 5 5 5 4 4 5 5 5 5 5 6 6 6 6 6 5
10 10 9 8 7 9 11 12 12 11 10 8 8 8 8 8 8 8 8 8 8 8 7 7 7 6 6 5 5 5 5 5 4 4 4 4 4 5 6 7 6 6 6 7 8 8 8 9 8 8 8 8 8 8 8 8 8 8 9 9 9 9 10 10 10 10 10 9 9
10 10 9 8 7 7 9 10 11 12 11 10 9 8 8 8 8 8 8 9 9 9 9 9 8 8 7 7 7 7 7 7 7 6 5 4 4 4 5 6 6 6 6 6 7 7 8 8 8 9 9 9 10 10 10 10 11 10 10 10 10 10 10 10 9 9 9 9 9
9 9 8 7 6 6 7 8 10 10 11 10 10 9 8 7 8 8 8 8 9 10 10 10 10 9 9 9 9 9 9 9 8 8 6 5 4 4 4 5 5 6 6 6 6 6 7 7 8 8 8 8 9 9 9 9 8 8 8 7 7 7 7 7 6 6 6 6 6
9 8 8 7 6 6 6 6 7 8 9 10 10 9 8 7 7 7 7 7 8 8 9 10 10 10 10 10 9 9 9 8 8 7 6 5 5 4 4 5 5 5 5 5 6 6 6 6 6 6 6 6 6 6 5 5 5 4 4 4 4 4 4 4 3 3 3 2 2
9 8 8 7 6 5 5 5 6 6 7 8 9 9 9 8 8 8 7 7 7 7 8 8 9 9 9 9 9 8 8 7 7 6 6 5 6 6 6 6 6 5 5 5 5 5 5 5 5 4 4 4 4 3 3 2 2 2 2 2 1 1 0 0 -0 -1 -2 -2 -3
9 9 8 8 7 6 6 5 5 6 6 7 8 8 9 8 8 8 7 6 6 6 6 6 7 7 8 8 8 8 7 6 6 6 6 6 6 7 6 6 6 6 6 5 5 5 5 4 4 4 3 3 2 2 2 1 1 1 1 0 -0 -1 -1 -2 -3 -3 -4 -4 -4
9 9 9 8 8 7 6 6 6 6 6 7 7 8 8 8 7 7 7 6 5 5 5 5 5 6 6 7 7 7 6 6 6 6 6 6 6 6 6 5 5 5 5 5 5 5 4 4 4 3 3 3 2 2 2 1 1 1 0 -0 -0 -1 -2 -2 -2 -3 -3 -4 -3
9 8 8 8 8 7 7 7 6 6 6 6 6 7 7 7 6 6 6 5 5 4 4 4 4 4 4 5 5 6 6 6 6 6 6 6 5 4 4 3 3 4 4 4 4 4 3 3 3 3 3 3 2 2 1 1 1 0 0 -0 -1 -1 -1 -2 -2 -2 -3 -2 -0
9 8 8 8 8 8 7 7 7 6 6 6 6 6 6 6 6 5 5 5 4 4 4 4 3 3 3 4 4 4 5 5 5 5 5 4 4 3 3 2 2 3 3 3 3 3 2 2 2 2 2 1 1 0 0 0 -0 -0 -1 -1 -1 -1 -2 -2 -2 -2 -1 1 4
10 10 9 9 8 8 8 7 7 7 7 7 6 6 6 6 6 6 6 5 5 5 5 4 4 3 3 3 4 4 4 4 4 4 4 4 4 3 3 3 4 4 4 3 3 2 2 1 1 1 0 0 -0 -0 -0 -0 -0 -0 -0 -0 -1 -1 -2 -2 -1 1 4 7 11
11 10 10 10 9 9 8 8 8 8 8 8 8 7 7 7 7 7 7 7 6 6 6 6 5 5 4 4 4 4 4 4 4 4 4 4 4 5 5 5 5 5 4 4 3 2 2 1 1 1 0 0 0 0 0 0 0 0 0 -0 -1 -1 -1 0 3 7 12 16 19
12 12 11 11 10 10 10 10 10 10 10 10 9 9 9 9 9 9 9 8 8 8 7 7 7 7 6 6 6 6 6 6 6 5 5 5 6 6 6 6 5 5 4 3 2 2 2 1 1 1 1 1 1 1 1 1 1 0 0 -0 -0 1 3 7 12 16 20 22 23
13 13 13 13 12 12 12 12 12 12 11 11 11 10 10 11 11 11 11 11 10 10 10 9 9 9 9 9 8 8 8 7 7 7 7 7 6 6 5 5 4 4 3 2 2 2 2 2 2 2 2 2 2 2 2 1 0 0 0 1 3 7 11 16 21 23 24 24 23
14 14 14 14 14 14 13 13 13 13 12 12 12 12 12 12 13 13 13 13 12 12 12 11 11 11 11 10 10 10 9 9 9 9 8 8 7 6 5 4 4 3 3 2 2 2 2 2 2 3 3 3 2 2 1 1 0 1 3 6 11 16 20 24 25 25 23 22 20
15 15 15 15 14 14 14 13 13 13 13 13 13 13 14 14 14 14 14 14 14 13 13 12 12 12 11 11 10 10 10 10 10 9 8 8 7 6 6 5 5 4 4 4 4 3 3 3 3 3 2 2 1 1 1 1 3 6 11 16 20 24 25 25 24 22 20 18 17
14 14 14 14 14 14 14 13 13 13 14 14 14 14 14 14 14 14 14 14 14 14 14 13 13 12 11 10 10 10 10 9 9 8 8 7 6 6 6 6 5 5 4 4 4 4 3 2 2 1 0 -0 0 1 3 6 11 16 21 25 27 27 25 23 21 19 18 17 17
13 13 13 14 14 14 14 13 14 14 14 14 14 14 14 13 14 14 13 13 13 13 13 13 12 11 10 10 10 9 8 8 7 7 6 6 6 5 5 5 4 4 4 3 3 2 2 1 0 0 0 2 4 8 12 17 22 26 28 29 27 25 22 20 19 18 17 17 16
11 11 12 12 12 12 13 13 13 13 13 12 12 12 12 12 12 12 12 11 11 11 11 10 10 9 9 9 8 7 7 6 6 5 5 4 4 4 3 3 2 2 2 1 1 1 1 1 2 4 7 11 16 21 25 29 30 30 29 26 24 21 19 18 16 15 13 12 10
9 9 10 10 10 10 11 11 11 11 10 10 10 10 10 10 9 9 9 8 8 8 7 6 6 6 6 5 4 4 4 3 3 2 2 2 2 1 1 1 1 0 1 1 2 3 5 8 12 17 21 26 29 31 32 31 28 26 23 21 19 17 15 13 10 9 7 6 6
7 7 7 8 8 8 8 8 8 8 8 7 7 7 6 6 6 6 5 4 4 3 2 2 2 2 1 1 1 1 0 0 0 0 0 0 0 1 1 2 2 4 5 7 10 14 18 22 27 31 33 34 33 30 27 24 22 20 17 15 12 10 8 7 7 7 8 8 9
5 5 5 5 6 5 5 5 5 4 4 4 4 3 3 2 2 1 1 0 -0 -1 -1 -0 -0 -0 -0 0 0 1 1 1 1 2 2 3 4 5 6 8 10 13 16 19 23 27 30 33 34 34 32 29 25 22 19 16 14 12 10 8 7 7 8 8 9 10 10 10 10
4 4 4 4 3 3 2 2 2 2 1 1 1 0 0 -0 -0 -1 -0 -0 0 0 0 1 2 2 2 3 4 4 5 6 6 7 8 10 11 13 16 18 21 24 27 30 32 33 33 32 30 27 23 19 16 14 12 10 9 8 8 8 8 9 9 9 8 8 8 7 7
6 5 4 4 3 3 2 2 2 2 2 2 2 2 2 2 2 3 3 4 4 5 5 6 6 7 7 8 9 10 11 13 14 16 17 19 22 24 26 28 30 31 31 31 30 28 27 24 21 18 15 12 10 9 8 7 8 8 8 8 8 7 6 6 6 6 6 6 6
8 8 7 6 6 6 5 6 6 6 6 6 7 7 7 8 8 8 9 9 10 10 11 12 13 13 14 16 17 18 20 22 24 25 27 28 29 30 30 30 29 28 26 25 23 21 19 16 13 11 9 7 7 6 6 7 7 7 7 6 6 5 5 5 6 6 7 8 8
13 12 12 11 10 10 10 10 11 11 12 12 12 13 13 14 14 14 14 15 16 17 18 19 20 22 23 24 26 27 28 28 29 29 29 28 28 27 25 24 22 21 19 17 15 13 11 9 8 7 6 5 5 6 6 7 7 7 6 6 6 5 6 6 7 8 8 8 7
20 19 18 18 17 17 17 17 17 17 17 18 18 18 18 19 20 20 21 22 23 24 24 25 26 27 27 27 27 27 26 25 24 23 22 21 20 19 18 16 15 13 11 9 8 6 6 5 5 5 6 6 6 7 7 7 7 7 7 6 6 6 7 7 7 7 6 5 5
27 26 26 25 24 24 23 23 22 22 22 22 22 22 23 23 23 24 24 25 25 25 25 25 24 23 22 21 20 19 18 18 17 16 15 14 13 12 11 10 9 8 6 5 5 5 5 5 6 6 6 7 7 8 8 8 8 8 7 7 7 7 7 7 6 6 5 5 5
28 28 27 27 26 26 25 24 24 23 23 23 23 23 22 22 22 22 21 21 20 20 19 18 17 16 15 15 14 14 13 12 12 11 10 10 9 8 7 7 7 6 6 6 6 6 6 7 7 7 7 7 7 8 8 8 8 7 7 7 7 7 7 7 7 7 6 6 6
25 25 24 24 24 23 23 22 21 21 20 20 20 19 18 18 17 17 16 15 14 14 13 13 13 13 12 12 12 12 12 11 10 10 9 9 9 8 8 8 8 8 8 7 7 7 7 7 7 7 7 7 7 7 7 7 7 7 7 8 8 8 8 8 8 8 8 7 7
20 20 20 20 20 19 19 18 18 17 17 16 15 15 14 14 13 13 13 12 12 12 12 12 12 12 12 12 12 12 12 12 11 10 10 10 9 9 8 8 7 7 7 7 7 7 7 7 7 7 7 7 7 7 7 7 7 7 8 8 8 8 8 7 7 7 7 6 6
Height
5657 5660 5662 5664 5666 5668 5670 5672 5674 5676 5678 5679 5681 5682 5684 5686 5687 5689 5690 5691 5692 5694 5695 5695 5696 5697 5698 5699 5699 5699 5700 5702 5702 5703 5703 5704 5704 5705 5706 5706 5707 5707 5708 5708 5709 5709 5710 5710 5711 5711 5712 5712 5713 5713 5713 5713 5714 5714 5714 5714 5714 5714 5714 5715 5715 5714 5714 5714 5713
5654 5656 5658 5661 5663 5665 5667 5670 5671 5673 5675 5676 5677 5679 5681 5683 5685 5686 5687 5688 5689 5690 5691 5692 5695 5696 5696 5696 5696 5696 5697 5699 5699 5700 5701 5701 5702 5703 5704 5704 5705 5705 5706 5706 5706 5707 5707 5708 5708 5709 5709 5710 5710 5710 5710 5710 5711 5711 5711 5711 5711 5711 5711 5711 5711 5711 5711 5711 5710
5651 5653 5655 5657 5660 5662 5665 5667 5669 5670 5672 5673 5675 5676 5678 5680 5681 5683 5684 5685 5686 5687 5689 5690 5692 5693 5694 5693 5692 5693 5695 5696 5696 5697 5698 5699 5700 5700 5701 5701 5702 5703 5703 5704 5704 5705 5705 5706 5706 5706 5707 5707 5707 5707 5708 5707 5708 5708 5708 5708 5708 5708 5708 5708 5708 5707 5707 5707 5706
5649 5651 5653 5655 5657 5660 5662 5664 5666 5668 5669 5671 5672 5674 5675 5677 5679 5680 5681 5682 5683 5685 5686 5687 5688 5690 5691 5690 5690 5691 5692 5693 5694 5695 5696 5696 5697 5698 5698 5699 5700 5700 5701 5701 5702 5702 5703 5703 5704 5704 5704 5704 5705 5705 5705 5705 5705 5705 5705 5705 5705 5705 5705 5705 5704 5704 5704 5704 5703
5645 5647 5650 5653 5655 5657 5659 5661 5663 5665 5666 5668 5669 5671 5672 5674 5676 5677 5678 5680 5681 5682 5683 5684 5685 5686 5687 5687 5688 5689 5689 5690 5691 5692 5693 5694 5694 5695 5696 5696 5697 5697 5698 5699 5699 5700 5700 5701 5701 5701 5701 5702 5702 5702 5702 5702 5702 5702 5702 5702 5702 5702 5702 5701 5701 5701 5701 5700 5700
5642 5645 5648 5651 5652 5654 5656 5659 5660 5662 5663 5665 5667 5668 5670 5671 5673 5675 5676 5677 5678 5679 5681 5682 5682 5683 5683 5684 5685 5686 5687 5688 5689 5690 5691 5691 5692 5692 5693 5694 5694 5695 5695 5696 5696 5697 5697 5698 5698 5698 5699 5699 5699 5699 5699 5699 5699 5699 5699 5699 5699 5699 5699 5698 5698 5698 5697 5697 5696
5640 5643 5646 5648 5650 5651 5654 5656 5657 5659 5661 5662 5664 5665 5667 5669 5671 5672 5673 5674 5675 5676 5678 5679 5680 5680 5681 5682 5682 5684 5685 5686 5687 5688 5689 5689 5689 5690 5690 5691 5691 5692 5692 5693 5694 5694 5695 5695 5695 5695 5696 5696 5696 5696 5696 5696 5696 5696 5696 5696 5696 5696 5696 5695 5695 5694 5694 5694 5693
5637 5640 5643 5645 5647 5649 5651 5652 5654 5656 5658 5660 5661 5663 5664 5666 5668 5670 5671 5671 5673 5674 5675 5676 5677 5678 5678 5680 5680 5681 5682 5683 5685 5686 5686 5686 5686 5687 5688 5688 5689 5690 5690 5691 5691 5691 5691 5692 5692 5692 5692 5693 5693 5693 5693 5693 5693 5693 5693 5693 5693 5693 5692 5692 5691 5691 5691 5691 5690
5635 5637 5640 5643 5645 5646 5648 5650 5651 5653 5655 5657 5658 5660 5662 5663 5665 5666 5668 5669 5670 5671 5673 5674 5675 5676 5676 5677 5678 5679 5680 5681 5682 5682 5683 5683 5684 5685 5686 5686 5686 5687 5687 5688 5688 5688 5689 5689 5689 5689 5689 5690 5690 5690 5690 5690 5690 5690 5690 5690 5690 5690 5689 5689 5688 5688 5687 5687 5686
5632 5635 5638 5641 5642 5643 5645 5647 5649 5651 5652 5654 5656 5657 5659 5661 5662 5663 5665 5666 5668 5669 5670 5671 5672 5673 5674 5675 5676 5676 5677 5678 5679 5680 5681 5681 5682 5682 5683 5684 5684 5685 5685 5685 5686 5686 5686 5686 5686 5686 5686 5687 5687 5687 5687 5687 5687 5687 5687 5686 5686 5686 5686 5685 5685 5685 5684 5683 5683
5629 5632 5635 5638 5639 5641 5642 5645 5646 5648 5650 5651 5653 5655 5656 5658 5660 5661 5663 5664 5666 5667 5667 5668 5670 5671 5671 5672 5673 5674 5675 5676 5677 5678 5678 5679 5680 5680 5681 5681 5681 5682 5682 5682 5683 5683 5683 5683 5683 5683 5684 5684 5684 5684 5684 5684 5684 5684 5683 5683 5683 5683 5682 5682 5681 5681 5681 5680 5679
5627 5631 5634 5635 5636 5638 5640 5642 5644 5645 5647 5649 5651 5653 5654 5656 5657 5659 5661 5662 5663 5664 5665 5666 5667 5668 5669 5670 5671 5671 5672 5673 5674 5675 5676 5676 5677 5678 5678 5678 5679 5679 5680 5680 5680 5680 5680 5680 5680 5681 5681 5681 5681 5681 5681 5681 5681 5681 5680 5680 5680 5679 5679 5678 5678 5677 5677 5676 5675
5625 5628 5629 5631 5633 5635 5637 5639 5641 5643 5645 5646 5649 5651 5652 5653 5655 5656 5658 5660 5661 5662 5663 5664 5665 5666 5666 5667 5668 5669 5670 5671 5672 5672 5673 5674 5674 5675 5676 5676 5676 5676 5677 5677 5677 5677 5677 5677 5677 5677 5677 5677 5678 5678 5677 5677 5677 5677 5677 5676 5676 5676 5676 5675 5674 5673 5673 5672 5671
5622 5624 5626 5628 5631 5633 5635 5637 5639 5641 5642 5644 5646 5648 5650 5651 5653 5654 5656 5657 5658 5660 5661 5661 5662 5663 5664 5665 5666 5667 5668 5669 5669 5670 5671 5671 5672 5672 5673 5673 5673 5674 5674 5674 5674 5674 5674 5674 5674 5675 5675 5675 5675 5674 5674 5674 5674 5673 5673 5673 5673 5672 5672 5671 5670 5670 5669 5668 5667
5619 5622 5624 5627 5629 5631 5633 5635 5637 5638 5640 5642 5644 5646 5647 5649 5651 5652 5654 5655 5656 5657 5658 5659 5660 5661 5662 5663 5664 5665 5665 5666 5667 5667 5668 5669 5669 5670 5670 5671 5671 5671 5671 5671 5671 5671 5671 5671 5671 5671 5671 5671 5671 5671 5671 5671 5670 5670 5670 5669 5669 5668 5668 5667 5666 5666 5665 5664 5663
5618 5621 5623 5626 5627 5629 5631 5633 5635 5636 5638 5640 5642 5643 5645 5647 5649 5650 5651 5653 5654 5655 5656 5657 5658 5659 5660 5661 5661 5662 5663 5663 5664 5665 5666 5666 5667 5667 5667 5667 5668 5668 5668 5668 5668 5668 5668 5668 5668 5668 5668 5668 5668 5668 5667 5667 5666 5666 5666 5665 5665 5664 5664 5663 5662 5661 5660 5659 5658
5617 5619 5621 5624 5625 5627 5629 5631 5632 5634 5636 5638 5640 5641 5643 5644 5646 5648 5649 5650 5651 5652 5654 5655 5656 5657 5658 5658 5659 5660 5661 5661 5662 5663 5663 5664 5664 5664 5665 5665 5665 5665 5665 5665 5665 5665 5665 5665 5665 5665 5665 5665 5665 5664 5664 5663 5663 5662 5662 5661 5661 5660 5659 5658 5658 5657 5656 5655 5654
5615 5617 5619 5621 5623 5625 5627 5629 5631 5632 5634 5636 5637 5639 5641 5642 5644 5645 5647 5648 5649 5650 5651 5653 5654 5655 5656 5656 5656 5657 5658 5659 5660 5660 5661 5661 5661 5661 5661 5662 5662 5662 5662 5662 5662 5662 5662 5662 5662 5662 5662 5661 5661 5661 5660 5660 5659 5658 5658 5657 5656 5656 5655 5654 5653 5652 5651 5650 5648
5613 5615 5617 5619 5621 5623 5625 5627 5629 5631 5632 5634 5636 5637 5639 5640 5641 5643 5644 5646 5647 5648 5650 5651 5652 5653 5653 5654 5655 5655 5656 5656 5657 5658 5658 5658 5658 5659 5659 5659 5659 5659 5659 5659 5659 5659 5659 5659 5659 5659 5658 5658 5657 5657 5656 5656 5655 5654 5653 5653 5652 5651 5650 5649 5648 5647 5646 5645 5643
5611 5613 5616 5618 5620 5622 5623 5625 5627 5629 5630 5632 5634 5635 5636 5638 5639 5641 5642 5644 5645 5646 5648 5649 5650 5651 5651 5652 5652 5653 5654 5654 5655 5655 5655 5656 5656 5656 5656 5656 5656 5656 5656 5656 5656 5656 5656 5656 5655 5655 5655 5654 5654 5653 5652 5651 5651 5650 5649 5648 5647 5646 5646 5644 5643 5642 5641 5639 5637
5610 5612 5614 5616 5618 5620 5622 5624 5625 5627 5629 5631 5632 5633 5635 5636 5637 5639 5640 5642 5643 5644 5646 5647 5648 5648 5649 5650 5650 5651 5651 5651 5652 5652 5652 5653 5653 5653 5653 5653 5653 5653 5653 5653 5652 5652 5652 5652 5652 5652 5651 5651 5650 5649 5648 5647 5646 5646 5645 5644 5643 5641 5640 5639 5638 5636 5635 5633 5631
5608 5610 5612 5615 5617 5619 5621 5622 5624 5626 5627 5629 5630 5631 5633 5634 5636 5637 5638 5640 5641 5642 5643 5645 5645 5646 5646 5647 5647 5648 5648 5649 5649 5649 5650 5650 5650 5650 5650 5651 5650 5650 5650 5649 5649 5649 5649 5649 5649 5648 5647 5647 5646 5645 5644 5643 5642 5641 5640 5639 5638 5636 5635 5634 5632 5631 5629 5627 5626
5607 5609 5611 5613 5615 5617 5619 5621 5622 5624 5626 5627 5628 5630 5631 5632 5634 5635 5636 5638 5639 5640 5641 5642 5643 5643 5644 5645 5645 5646 5646 5646 5647 5647 5647 5647 5647 5647 5647 5647 5647 5646 5646 5646 5646 5646 5646 5645 5645 5645 5644 5643 5642 5641 5640 5639 5638 5636 5636 5634 5633 5631 5630 5628 5627 5625 5623 5622 5620
5606 5608 5610 5612 5614 5616 5618 5619 5621 5622 5624 5625 5626 5628 5629 5631 5632 5633 5635 5636 5637 5638 5639 5640 5640 5641 5641 5642 5643 5643 5643 5644 5644 5644 5644 5644 5644 5644 5644 5643 5643 5643 5642 5642 5642 5642 5642 5642 5641 5641 5640 5639 5638 5636 5635 5634 5633 5632 5631 5630 5628 5626 5625 5623 5621 5620 5618 5616 5615
5604 5606 5608 5610 5612 5614 5616 5617 5619 5620 5622 5623 5625 5626 5628 5629 5630 5631 5633 5634 5635 5636 5636 5637 5638 5639 5639 5640 5640 5641 5641 5641 5641 5641 5641 5641 5641 5640 5640 5640 5639 5639 5639 5638 5638 5638 5638 5638 5638 5637 5636 5635 5633 5632 5631 5629 5628 5627 5626 5625 5623 5621 5620 5618 5616 5615 5613 5612 5610
5602 5605 5606 5608 5610 5612 5614 5616 5617 5619 5620 5621 5623 5624 5626 5627 5628 5629 5630 5631 5632 5633 5634 5635 5635 5636 5636 5637 5637 5638 5638 5638 5638 5638 5638 5637 5637 5637 5636 5636 5636 5636 5635 5635 5635 5634 5634 5635 5635 5634 5632 5631 5629 5627 5626 5624 5623 5622 5621 5620 5618 5616 5615 5613 5611 5610 5609 5607 5606
5601 5603 5605 5606 5609 5610 5612 5614 5616 5617 5618 5620 5621 5622 5624 5625 5626 5627 5628 5629 5630 5631 5631 5632 5633 5633 5634 5634 5634 5635 5635 5635 5635 5635 5634 5634 5634 5634 5633 5633 5633 5632 5632 5631 5631 5631 5630 5631 5631 5630 5628 5626 5624 5623 5621 5620 5619 5617 5616 5615 5613 5612 5611 5609 5607 5606 5605 5603 5601
5600 5601 5603 5605 5607 5609 5611 5612 5614 5616 5617 5618 5619 5621 5622 5623 5624 5625 5626 5626 5627 5628 5629 5629 5630 5630 5631 5631 5631 5632 5632 5632 5632 5632 5631 5631 5631 5630 5630 5630 5629 5629 5628 5628 5627 5626 5626 5626 5626 5626 5624 5622 5620 5619 5617 5616 5614 5613 5611 5610 5609 5608 5606 5605 5604 5602 5601 5599 5597
5598 5600 5602 5604 5606 5607 5609 5611 5612 5614 5615 5616 5617 5618 5620 5621 5621 5622 5623 5624 5625 5626 5626 5627 5627 5628 5628 5628 5629 5629 5629 5629 5629 5629 5628 5628 5627 5627 5626 5626 5626 5625 5625 5624 5623 5623 5622 5622 5622 5621 5620 5618 5616 5615 5613 5612 5610 5609 5607 5606 5605 5604 5603 5601 5600 5599 5597 5596 5594
5597 5599 5601 5603 5605 5606 5608 5610 5611 5612 5613 5614 5616 5616 5617 5619 5619 5620 5621 5622 5623 5623 5624 5624 5625 5625 5626 5626 5626 5626 5626 5626 5626 5626 5625 5625 5624 5624 5623 5623 5622 5621 5621 5621 5620 5619 5618 5617 5617 5616 5616 5614 5613 5611 5609 5608 5606 5605 5604 5603 5602 5601 5599 5598 5596 5595 5593 5592 5590
5596 5598 5600 5602 5603 5605 5606 5607 5609 5610 5611 5612 5613 5615 5616 5616 5617 5618 5619 5620 5620 5621 5621 5622 5622 5623 5623 5623 5623 5623 5623 5623 5622 5622 5621 5621 5621 5620 5620 5619 5618 5618 5617 5616 5616 5615 5614 5613 5612 5612 5611 5610 5609 5607 5606 5604 5603 5602 5601 5600 5598 5597 5596 5595 5593 5591 5590 5588 5586
5595 5597 5599 5600 5602 5603 5604 5606 5607 5608 5609 5610 5611 5612 5613 5614 5615 5616 5616 5617 5618 5618 5619 5619 5620 5620 5620 5620 5620 5620 5620 5620 5619 5619 5618 5618 5617 5616 5616 5615 5615 5614 5613 5612 5611 5611 5610 5609 5608 5608 5607 5606 5605 5604 5602 5601 5600 5599 5597 5596 5595 5594 5592 5591 5589 5588 5586 5584 5582
5594 5596 5597 5598 5600 5601 5602 5604 5605 5606 5607 5608 5609 5610 5611 5612 5613 5613 5614 5615 5615 5616 5616 5616 5617 5617 5617 5617 5617 5616 5616 5616 5616 5615 5615 5614 5613 5613 5612 5611 5611 5610 5609 5609 5608 5607 5606 5606 5605 5605 5604 5603 5602 5601 5600 5598 5596 5595 5594 5592 5591 5590 5589 5587 5586 5584 5582 5580 5578
5592 5594 5595 5596 5598 5599 5600 5601 5603 5604 5605 5606 5607 5608 5609 5610 5610 5611 5611 5612 5612 5613 5613 5613 5614 5614 5614 5614 5613 5613 5613 5612 5612 5611 5611 5610 5610 5609 5609 5608 5607 5606 5606 5605 5604 5604 5603 5602 5602 5601 5601 5600 5600 5598 5596 5595 5593 5591 5590 5589 5588 5587 5585 5583 5581 5579 5577 5576 5574
5591 5592 5593 5595 5596 5597 5598 5599 5601 5602 5603 5604 5605 5606 5606 5607 5608 5608 5609 5609 5610 5610 5610 5610 5611 5611 5611 5610 5610 5610 5610 5609 5609 5608 5608 5607 5607 5606 5606 5605 5604 5604 5603 5602 5601 5601 5600 5600 5599 5598 5598 5597 5596 5595 5593 5591 5590 5588 5587 5586 5585 5583 5581 5579 5577 5575 5573 5571 5569
5589 5591 5592 5593 5594 5595 5596 5598 5599 5600 5601 5602 5603 5603 5604 5605 5605 5606 5606 5606 5607 5607 5607 5608 5608 5608 5608 5607 5607 5607 5607 5606 5606 5606 5605 5605 5604 5603 5603 5602 5601 5601 5601 5600 5599 5598 5597 5597 5596 5596 5595 5594 5593 5591 5590 5588 5586 5586 5584 5583 5581 5579 5577 5574 5572 5570 5568 5567 5565
5588 5589 5591 5591 5593 5594 5595 5596 5597 5598 5599 5600 5601 5602 5602 5603 5603 5604 5604 5604 5605 5605 5605 5605 5605 5605 5605 5605 5605 5604 5604 5604 5603 5603 5602 5602 5601 5601 5600 5600 5599 5599 5598 5597 5597 5596 5595 5594 5593 5592 5591 5591 5589 5588 5586 5585 5583 5582 5581 5579 5577 5575 5573 5570 5568 5566 5564 5562 5560
5587 5588 5589 5591 5592 5593 5594 5595 5596 5597 5598 5599 5599 5600 5601 5601 5601 5602 5602 5602 5602 5603 5603 5603 5603 5603 5603 5602 5602 5602 5602 5601 5601 5601 5600 5600 5599 5599 5598 5598 5597 5596 5596 5595 5594 5593 5592 5591 5590 5589 5588 5587 5586 5584 5583 5581 5580 5579 5577 5576 5574 5571 5569 5566 5564 5562 5560 5557 5555
5586 5587 5589 5590 5591 5592 5593 5594 5595 5596 5597 5597 5598 5599 5599 5599 5600 5600 5600 5600 5601 5601 5601 5601 5601 5601 5601 5600 5600 5600 5600 5599 5599 5598 5598 5598 5597 5597 5596 5596 5595 5594 5593 5592 5591 5591 5589 5588 5586 5585 5584 5583 5582 5581 5579 5578 5576 5575 5574 5572 5569 5567 5565 5562 5560 5558 5555 5553 5551
5586 5587 5588 5590 5591 5591 5592 5593 5594 5595 5596 5596 5597 5597 5598 5598 5598 5598 5598 5599 5599 5599 5599 5599 5599 5599 5599 5598 5598 5598 5598 5597 5597 5596 5596 5596 5595 5595 5594 5593 5592 5592 5591 5590 5589 5587 5586 5585 5583 5582 5581 5580 5579 5577 5576 5574 5572 5571 5569 5567 5565 5562 5560 5558 5556 5553 5551 5548 5545
5586 5587 5588 5589 5590 5591 5592 5593 5593 5594 5594 5595 5596 5596 5596 5596 5597 5597 5597 5597 5597 5597 5597 5597 5597 5597 5597 5596 5596 5596 5596 5596 5595 5595 5594 5594 5593 5593 5592 5591 5590 5589 5588 5587 5586 5584 5583 5582 5581 5579 5578 5576 5575 5573 5571 5570 5568 5566 5565 5563 5561 5558 5556 5553 5551 5548 5545 5542 5540